Weather History for Longview, TX

Change the Weather History Date:

Thursday, August 22, 2013

  Actual Average Record
Temperature  
Mean Temperature 86 °F 82 °F  
Max Temperature 98 °F 94 °F 106 °F (1948)
Min Temperature 74 °F 71 °F 57 °F (1956)
Degree Days  
Heating Degree Days 0 0  
Month to date heating degree days 0 0  
Since 1 June heating degree days 0 0  
Since 1 July heating degree days 0 0  
Cooling Degree Days 21 17  
Month to date cooling degree days 443 402  
Year to date cooling degree days 1899 1792  
Since 1 June cooling degree days 1511 1413  
Growing Degree Days 34 (Base 50)    
Moisture  
Dew Point 68 °F    
Average Humidity 61    
Maximum Humidity 87    
Minimum Humidity 35    
Precipitation  
Precipitation 0.00 in 0.10 in 2.20 in (1919)
Month to date precipitation 1.06 2.11  
Year to date precipitation 20.33 29.74  
Snow  
Snow 0.00 in - - ()
Month to date snowfall 0.0  
Since 1 June snowfall 0.0  
Since 1 July snowfall 0.0  
Snow Depth 0.00 in    
Sea Level Pressure  
Sea Level Pressure 30.01 in    
Wind  
Wind Speed 4 mph (SE)    
Max Wind Speed 18 mph    
Max Gust Speed 23 mph    
Visibility 10 miles    
Events Thunderstorm    
T = Trace of Precipitation, MM = Missing Value Source: NWS Daily Summary

Daily Weather History Graph

Daily Weather History Graph

Search for Another Location

Airport:

Trip Planner

Search our weather history database for the weather conditions in past years. The results will help you decide how hot, cold, wet, or windy it might be!

Date:

Astronomy

Aug. 22, 2013 Rise Set
Actual Time 6:47 AM CDT 7:55 PM CDT
Civil Twilight 6:22 AM CDT 8:20 PM CDT
Nautical Twilight 5:51 AM CDT 8:50 PM CDT
Astronomical Twilight 5:20 AM CDT 9:21 PM CDT
Moon 8:51 PM CDT (8/22) 8:27 AM CDT (8/22)
Length of Visible Light 13h 58m
Length of Day
13h 07m
Waning Gibbous, 96% of the Moon is Illuminated
Aug 22
Waning Gibbous
Aug 28
Last Quarter
Sep 5
New
Sep 12
First Quarter
Sep 19
Full

Hourly Weather History & Observations

Time (CDT) Temp. Heat Index Dew Point Humidity Pressure Visibility Wind Dir Wind Speed Gust Speed Precip Events Conditions
12:53 AM 82.0 °F 84.5 °F 66.9 °F 60% 30.02 in 10.0 mi South 8.1 mph - N/A   Clear
1:53 AM 80.1 °F 82.7 °F 68.0 °F 67% 30.02 in 10.0 mi SSE 8.1 mph - N/A   Clear
2:53 AM 79.0 °F - 68.0 °F 69% 30.03 in 10.0 mi SSE 9.2 mph - N/A   Clear
3:53 AM 78.1 °F - 68.0 °F 71% 30.03 in 10.0 mi SSE 5.8 mph - N/A   Clear
4:53 AM 75.9 °F - 69.1 °F 79% 30.04 in 10.0 mi SE 3.5 mph - N/A   Partly Cloudy
5:53 AM 75.9 °F - 69.1 °F 79% 30.05 in 10.0 mi Calm Calm - N/A   Partly Cloudy
6:53 AM 73.9 °F - 69.1 °F 85% 30.06 in 10.0 mi Calm Calm - N/A   Partly Cloudy
7:53 AM 78.1 °F - 69.1 °F 74% 30.08 in 10.0 mi SSE 3.5 mph - N/A   Clear
8:53 AM 82.0 °F 86.3 °F 71.1 °F 69% 30.09 in 10.0 mi SSW 3.5 mph - N/A   Clear
9:53 AM 87.1 °F 92.8 °F 71.1 °F 59% 30.08 in 10.0 mi Variable 3.5 mph - N/A   Partly Cloudy
10:53 AM 88.0 °F 93.8 °F 71.1 °F 57% 30.07 in 10.0 mi SW 3.5 mph - N/A   Scattered Clouds
11:53 AM 89.1 °F 94.1 °F 70.0 °F 53% 30.06 in 10.0 mi Calm Calm - N/A   Mostly Cloudy
12:53 PM 93.0 °F 96.4 °F 66.9 °F 42% 30.03 in 10.0 mi ESE 5.8 mph - N/A   Scattered Clouds
1:53 PM 95.0 °F 97.4 °F 64.9 °F 37% 30.00 in 10.0 mi Calm Calm - N/A   Scattered Clouds
2:53 PM 96.1 °F 98.3 °F 64.0 °F 35% 29.97 in 10.0 mi Variable 3.5 mph - N/A   Clear
3:07 PM 96.8 °F 99.0 °F 64.4 °F 34% 29.99 in 10.0 mi ESE 5.8 mph - N/A Thunderstorm Partly Cloudy
3:30 PM 96.8 °F 100.7 °F 66.2 °F 37% 29.98 in 10.0 mi ENE 13.8 mph 23.0 mph N/A Thunderstorm Thunderstorm
3:53 PM 96.1 °F 99.3 °F 66.0 °F 37% 29.95 in 10.0 mi East 15.0 mph - N/A Thunderstorm Thunderstorm
4:53 PM 95.0 °F 99.0 °F 66.9 °F 40% 29.94 in 10.0 mi East 8.1 mph - N/A Thunderstorm Thunderstorm
5:53 PM 91.0 °F 95.2 °F 68.0 °F 47% 29.93 in 10.0 mi ENE 5.8 mph - N/A Thunderstorm Thunderstorm
6:53 PM 90.0 °F 93.6 °F 68.0 °F 48% 29.94 in 10.0 mi West 3.5 mph - N/A Thunderstorm Thunderstorm
7:53 PM 86.0 °F 90.7 °F 70.0 °F 59% 29.95 in 10.0 mi Calm Calm - N/A Thunderstorm Thunderstorm
8:53 PM 82.9 °F 87.0 °F 70.0 °F 65% 29.96 in 10.0 mi ENE 3.5 mph - N/A Thunderstorm Thunderstorm
9:53 PM 82.0 °F 85.9 °F 70.0 °F 67% 29.98 in 10.0 mi Calm Calm - N/A Thunderstorm Thunderstorm
10:53 PM 82.0 °F 85.9 °F 70.0 °F 67% 29.99 in 10.0 mi SSW 4.6 mph - N/A   Clear
11:53 PM 79.0 °F - 70.0 °F 74% 29.99 in 10.0 mi SSE 3.5 mph - N/A   Clear